Flag for Germany Weather past 2 weeks in Limburg an der Lahn, Hesse, Germany

Now
34 °F

Fog.


Feels Like: 24 °F
Forecast: 37 / 45 °F
Wind: 14 mph from Southwest

Location: Hessen

Current Time: Mar 1, 2015 at 10:24:29 AM

Latest Report: Mar 1, 2015 at 9:50 AM


Visibility: 0 mi

Pressure: 29.62 "Hg

Humidity: 100%

Dew point: 34 °F

Location of Limburg an der LahnLocation

Historic Weather in Limburg an der Lahn — Graph

°F

Limburg an der Lahn temperature yesterday

Maximum temperature yesterday: 37 °F (at 2:20 PM)
Minimum temperature yesterday: 27 °F (at 7:50 AM)
Average temperature yesterday: 33 °F

Past Weeks' High & Low Weather Summary

 TemperatureHumidityPressure
High88 °F (Feb 19, 5:50 PM)100% (Feb 14, 8:20 AM)30.69 "Hg (Feb 14, 8:20 AM)
Low27 °F (Feb 14, 8:20 AM)60% (Feb 22, 2:20 PM)29.36 "Hg (Feb 21, 7:50 AM)
Average33 °F93%29.95 "Hg
* Reported Feb 14 8:20 AM — Mar 1 8:50 AM, Limburg an der Lahn, Weather by CustomWeather, © 2015

Note: Actual official high and low records may vary slightly from our data, if they occured in-between our weather recording intervals... More about our weather records

Advertising

Limburg an der Lahn weather history for previous 24 hours

 ConditionsComfort  
Time TempWeatherWind HumidityBarometerVisibility
8:50 AM
Sun, Mar 1
34 °FDrizzle. Fog.14 mph100%29.59 "Hg0 mi
8:20 AM34 °FLight rain. Fog.17 mph100%29.62 "Hg0 mi
7:50 AM32 °FFog.15 mph100%29.62 "Hg0 mi
6:20 PM
Sat, Feb 28
34 °FClear.8 mph70%29.95 "Hg10 mi
5:50 PM36 °FPassing clouds.12 mph65%29.95 "HgN/A
5:20 PM37 °FPassing clouds.10 mph60%29.95 "HgN/A
4:50 PM37 °FPassing clouds.12 mph65%29.98 "HgN/A
4:20 PM37 °FPassing clouds.10 mph65%29.98 "HgN/A
3:50 PM37 °FPassing clouds.10 mph65%30.01 "HgN/A
2:50 PM37 °FPassing clouds.10 mph65%30.01 "HgN/A
2:20 PM37 °FScattered clouds.8 mph65%30.04 "HgN/A
1:50 PM36 °FScattered clouds.12 mph65%30.04 "HgN/A
1:20 PM36 °FScattered clouds.13 mph70%30.04 "HgN/A
12:50 PM36 °FScattered clouds.12 mph70%30.07 "HgN/A
12:20 PM34 °FScattered clouds.12 mph75%30.07 "HgN/A
11:50 AM32 °FScattered clouds.9 mph87%30.07 "HgN/A
11:20 AM32 °FScattered clouds.10 mph93%30.07 "HgN/A
10:50 AM30 °FPartly sunny.9 mph100%30.09 "Hg4 mi
10:20 AM30 °FPartly sunny.10 mph100%30.09 "Hg4 mi
Weather by CustomWeather, © 2015

See weather overviewHow to use our weather pages